Location: Hradec Kralove
(50.2170°N, 15.8330°E)
Time: 10:07:16
(UTC+01:00)

Vanguard 2 Rocket - All Passes

Search period start: 03 March 2024 00:00
Search period end: 13 March 2024 00:00
Orbit: 555 x 3309 km, 32.9° (Epoch: 02 March)

Date Brightness Start Highest point End Pass type
(mag) Time Alt. Az. Time Alt. Az. Time Alt. Az.
03 Mar - 12:03:02 10° S 12:06:41 15° SSE 12:11:19 10° ESE daylight
03 Mar - 14:11:57 10° SW 14:18:33 28° S 14:28:39 10° ESE daylight
03 Mar - 16:23:33 10° WSW 16:31:52 27° SSW 16:43:58 10° SE daylight
03 Mar - 18:38:45 10° WSW 18:45:54 16° SSW 18:54:30 10° S visible
04 Mar - 13:11:34 10° SSW 13:16:54 23° SSE 13:24:42 10° ESE daylight
04 Mar - 15:22:19 10° WSW 15:29:36 27° S 15:40:34 10° SE daylight
04 Mar - 17:35:43 10° WSW 17:43:20 19° SSW 17:53:15 10° SSE daylight
05 Mar - 12:11:40 10° SSW 12:15:34 17° SSE 12:20:43 10° ESE daylight
05 Mar - 14:21:25 10° SW 14:27:38 26° S 14:36:58 10° SE daylight
05 Mar - 16:33:40 10° WSW 16:40:55 21° SSW 16:50:57 10° SSE daylight
06 Mar - 11:13:23 10° SSE 11:14:27 10° SSE 11:15:37 10° SE daylight
06 Mar - 13:20:52 10° SW 13:25:58 23° S 13:33:21 10° SE daylight
06 Mar - 15:32:11 10° WSW 15:38:43 23° S 15:48:05 10° SSE daylight
06 Mar - 17:47:39 10° SW 17:52:19 13° SSW 17:57:45 10° S daylight
07 Mar - 12:20:41 10° SSW 12:24:34 18° SSE 12:29:45 10° SE daylight
07 Mar - 14:31:08 10° SW 14:36:47 22° S 14:44:56 10° SE daylight
07 Mar - 16:44:32 10° SW 16:50:01 15° SSW 16:56:55 10° S daylight
08 Mar - 11:21:15 10° S 11:23:23 12° SSE 11:25:51 10° SE daylight
08 Mar - 13:30:24 10° SW 13:35:07 20° S 13:41:43 10° SE daylight
08 Mar - 15:42:34 10° SW 15:47:53 17° SSW 15:54:55 10° SSE daylight
09 Mar - 12:30:01 10° SSW 12:33:41 17° S 12:38:29 10° SE daylight
09 Mar - 14:41:13 10° SW 14:45:59 18° S 14:52:24 10° SSE daylight
10 Mar - 11:30:06 10° S 11:32:26 13° SSE 11:35:10 10° SE daylight
10 Mar - 13:40:16 10° SW 13:44:19 17° S 13:49:40 10° SSE daylight
10 Mar - 15:54:33 10° SW 15:57:04 11° SSW 15:59:55 10° S daylight
11 Mar - 12:39:40 10° SSW 12:42:51 15° S 12:46:52 10° SE daylight
11 Mar - 14:52:13 10° SW 14:55:13 12° SSW 14:58:46 10° S daylight
12 Mar - 11:39:28 10° SSW 11:41:33 12° S 11:43:58 10° SSE daylight
12 Mar - 13:50:48 10° SSW 13:53:34 13° S 13:56:50 10° SSE daylight
